Time,TemperatureF,DewpointF,PressureIn,WindDirection,WindDirectionDegrees,WindSpeedMPH,WindSpeedGustMPH,Humidity,HourlyPrecipIn,Conditions,Clouds,dailyrainin,SolarRadiationWatts/m^2,SoftwareType,DateUTC
2013-07-27 00:01:00,65.5,60.4,30.04,SE,145,0.0,0.0,84,0.00,,,0.02,0.0,meteohub,2013-07-27 04:01:00,
2013-07-27 00:02:00,65.5,60.4,30.04,SE,145,0.0,0.0,84,0.00,,,0.02,0.0,meteohub,2013-07-27 04:02:00,
2013-07-27 00:06:00,65.5,60.4,30.04,SE,145,0.0,0.0,84,0.00,,,0.00,0.0,meteohub,2013-07-27 04:06:00,
2013-07-27 00:08:00,65.5,60.4,30.04,SE,145,0.0,0.0,84,0.00,,,0.00,0.0,meteohub,2013-07-27 04:08:00,
2013-07-27 00:13:00,65.5,60.4,30.04,SE,145,0.0,0.0,84,0.00,,,0.00,0.0,meteohub,2013-07-27 04:13:00,
2013-07-27 00:18:00,65.3,60.6,30.04,SE,145,0.0,1.0,85,0.00,,,0.00,0.0,meteohub,2013-07-27 04:18:00,
2013-07-27 00:23:00,65.3,60.3,30.04,SE,145,0.0,1.0,84,0.00,,,0.00,0.0,meteohub,2013-07-27 04:23:00,
2013-07-27 00:28:00,65.1,59.9,30.04,SE,145,0.0,1.0,83,0.00,,,0.00,0.0,meteohub,2013-07-27 04:28:00,
2013-07-27 00:34:00,65.1,59.9,30.04,SE,145,0.0,1.0,83,0.00,,,0.00,0.0,meteohub,2013-07-27 04:34:00,
2013-07-27 00:39:00,65.1,59.9,30.04,SE,145,0.0,1.0,83,0.00,,,0.00,0.0,meteohub,2013-07-27 04:39:00,
2013-07-27 00:44:00,65.1,60.1,30.04,SE,145,0.0,1.0,84,0.00,,,0.00,0.0,meteohub,2013-07-27 04:44:00,
2013-07-27 00:49:00,65.1,60.1,30.04,SE,145,0.0,1.0,84,0.00,,,0.00,0.0,meteohub,2013-07-27 04:49:00,
2013-07-27 00:54:00,64.9,59.9,30.04,SE,145,0.0,1.0,84,0.00,,,0.00,0.0,meteohub,2013-07-27 04:54:00,
2013-07-27 00:59:00,64.9,59.7,30.04,SE,145,0.0,0.0,83,0.00,,,0.00,0.0,meteohub,2013-07-27 04:59:00,
2013-07-27 01:05:00,64.9,59.7,30.04,SE,145,0.0,1.0,83,0.00,,,0.00,0.0,meteohub,2013-07-27 05:05:00,
2013-07-27 01:10:00,64.9,59.4,30.04,SE,145,0.0,1.0,82,0.00,,,0.00,0.0,meteohub,2013-07-27 05:10:00,
2013-07-27 01:15:00,64.9,60.6,30.04,SE,145,0.0,1.0,86,0.00,,,0.00,0.0,meteohub,2013-07-27 05:15:00,
2013-07-27 01:20:00,64.8,60.4,30.04,SE,143,0.0,3.0,86,0.00,,,0.00,0.0,meteohub,2013-07-27 05:20:00,
2013-07-27 01:26:00,64.6,60.6,30.04,SE,143,0.0,3.0,87,0.00,,,0.00,0.0,meteohub,2013-07-27 05:26:00,
2013-07-27 01:31:00,64.2,60.3,30.04,SE,143,0.0,3.0,87,0.00,,,0.00,0.0,meteohub,2013-07-27 05:31:00,
2013-07-27 01:36:00,64.0,60.4,30.04,SE,143,0.0,1.0,88,0.00,,,0.00,0.0,meteohub,2013-07-27 05:36:00,
2013-07-27 01:41:00,63.9,60.3,30.04,SE,143,0.0,1.0,88,0.00,,,0.00,0.0,meteohub,2013-07-27 05:41:00,
2013-07-27 01:46:00,63.5,60.3,30.04,SE,143,0.0,1.0,89,0.00,,,0.00,0.0,meteohub,2013-07-27 05:46:00,
2013-07-27 01:52:00,63.3,60.1,30.04,SE,143,0.0,0.0,89,0.00,,,0.00,0.0,meteohub,2013-07-27 05:52:00,
2013-07-27 01:57:00,63.1,60.1,30.03,SE,143,0.0,0.0,90,0.00,,,0.00,0.0,meteohub,2013-07-27 05:57:00,
2013-07-27 02:02:00,63.0,59.9,30.03,SE,143,0.0,0.0,90,0.00,,,0.00,0.0,meteohub,2013-07-27 06:02:00,
2013-07-27 02:07:00,62.8,59.7,30.03,SE,143,0.0,2.0,90,0.00,,,0.00,0.0,meteohub,2013-07-27 06:07:00,
2013-07-27 02:12:00,62.8,59.7,30.03,SE,143,0.0,2.0,90,0.00,,,0.00,0.0,meteohub,2013-07-27 06:12:00,
2013-07-27 02:17:00,62.8,59.7,30.03,SE,143,0.0,2.0,90,0.00,,,0.00,0.0,meteohub,2013-07-27 06:17:00,
2013-07-27 02:22:00,62.8,60.1,30.03,SE,143,0.0,1.0,91,0.00,,,0.00,0.0,meteohub,2013-07-27 06:22:00,
2013-07-27 02:27:00,62.8,59.7,30.03,SE,143,0.0,1.0,90,0.00,,,0.00,0.0,meteohub,2013-07-27 06:27:00,
2013-07-27 02:33:00,62.8,59.7,30.03,SE,143,0.0,1.0,90,0.00,,,0.00,0.0,meteohub,2013-07-27 06:33:00,
2013-07-27 02:38:00,62.6,59.4,30.03,SE,143,0.0,1.0,89,0.00,,,0.00,0.0,meteohub,2013-07-27 06:38:00,
2013-07-27 02:43:00,62.4,59.4,30.04,SE,143,0.0,1.0,90,0.00,,,0.00,0.0,meteohub,2013-07-27 06:43:00,
2013-07-27 02:48:00,62.4,59.4,30.03,SE,143,0.0,1.0,90,0.00,,,0.00,0.0,meteohub,2013-07-27 06:48:00,
2013-07-27 02:53:00,62.2,59.2,30.03,SE,143,0.0,1.0,90,0.00,,,0.00,0.0,meteohub,2013-07-27 06:53:00,
2013-07-27 02:59:00,62.2,59.2,30.04,SE,143,0.0,1.0,90,0.00,,,0.00,0.0,meteohub,2013-07-27 06:59:00,
2013-07-27 03:04:00,62.4,59.2,30.04,SE,143,0.0,1.0,89,0.00,,,0.00,0.0,meteohub,2013-07-27 07:04:00,
2013-07-27 03:09:00,62.4,59.2,30.03,SE,143,0.0,1.0,89,0.00,,,0.00,0.0,meteohub,2013-07-27 07:09:00,
2013-07-27 03:14:00,62.2,59.0,30.04,SE,143,0.0,1.0,89,0.00,,,0.00,0.0,meteohub,2013-07-27 07:14:00,
2013-07-27 03:20:00,62.1,58.8,30.03,SE,143,0.0,0.0,89,0.00,,,0.00,0.0,meteohub,2013-07-27 07:20:00,
2013-07-27 03:25:00,61.9,59.0,30.04,SE,143,0.0,1.0,90,0.00,,,0.00,0.0,meteohub,2013-07-27 07:25:00,
2013-07-27 03:30:00,61.5,58.6,30.04,SE,143,0.0,1.0,90,0.00,,,0.00,0.0,meteohub,2013-07-27 07:30:00,
2013-07-27 03:35:00,61.3,58.6,30.04,SE,143,0.0,0.0,91,0.00,,,0.00,0.0,meteohub,2013-07-27 07:35:00,
2013-07-27 03:40:00,61.2,58.5,30.04,SE,143,0.0,0.0,91,0.00,,,0.00,0.0,meteohub,2013-07-27 07:40:00,
2013-07-27 03:46:00,61.0,58.3,30.03,SE,143,0.0,0.0,91,0.00,,,0.00,0.0,meteohub,2013-07-27 07:46:00,
2013-07-27 03:51:00,60.6,58.3,30.03,SE,143,0.0,0.0,92,0.00,,,0.00,0.0,meteohub,2013-07-27 07:51:00,
2013-07-27 03:56:00,60.4,58.1,30.03,SE,143,0.0,0.0,92,0.00,,,0.00,0.0,meteohub,2013-07-27 07:56:00,
2013-07-27 04:01:00,60.3,57.9,30.03,SE,143,0.0,1.0,92,0.00,,,0.00,0.0,meteohub,2013-07-27 08:01:00,
2013-07-27 04:06:00,60.1,57.7,30.03,SE,143,0.0,1.0,92,0.00,,,0.00,0.0,meteohub,2013-07-27 08:06:00,
2013-07-27 04:11:00,59.7,57.4,30.03,SE,143,0.0,0.0,92,0.00,,,0.00,0.0,meteohub,2013-07-27 08:11:00,
2013-07-27 04:17:00,59.7,57.7,30.03,SE,143,0.0,0.0,93,0.00,,,0.00,0.0,meteohub,2013-07-27 08:17:00,
2013-07-27 04:22:00,59.5,57.6,30.03,SE,143,0.0,0.0,93,0.00,,,0.00,0.0,meteohub,2013-07-27 08:22:00,
2013-07-27 04:27:00,59.5,57.6,30.03,SE,143,0.0,0.0,93,0.00,,,0.00,0.0,meteohub,2013-07-27 08:27:00,
2013-07-27 04:32:00,59.4,57.6,30.03,SE,143,0.0,0.0,94,0.00,,,0.00,0.0,meteohub,2013-07-27 08:32:00,
2013-07-27 04:37:00,59.4,57.6,30.03,SE,143,0.0,0.0,94,0.00,,,0.00,0.0,meteohub,2013-07-27 08:37:00,
2013-07-27 04:42:00,59.4,57.6,30.03,SE,143,0.0,0.0,94,0.00,,,0.00,0.0,meteohub,2013-07-27 08:42:00,
2013-07-27 04:47:00,59.4,57.6,30.03,SE,143,0.0,0.0,94,0.00,,,0.00,0.0,meteohub,2013-07-27 08:47:00,
2013-07-27 04:52:00,59.2,57.4,30.03,SE,143,0.0,0.0,94,0.00,,,0.00,0.0,meteohub,2013-07-27 08:52:00,
2013-07-27 04:57:00,59.2,57.4,30.03,SE,143,0.0,1.0,94,0.00,,,0.00,0.0,meteohub,2013-07-27 08:57:00,
2013-07-27 05:03:00,59.2,57.4,30.04,SE,143,0.0,1.0,94,0.00,,,0.00,0.0,meteohub,2013-07-27 09:03:00,
2013-07-27 05:08:00,58.8,57.0,30.04,SE,143,0.0,1.0,94,0.00,,,0.00,0.0,meteohub,2013-07-27 09:08:00,
2013-07-27 05:13:00,58.8,57.0,30.04,SE,143,0.0,0.0,94,0.00,,,0.00,0.0,meteohub,2013-07-27 09:13:00,
2013-07-27 05:18:00,58.6,56.8,30.04,SE,143,0.0,0.0,94,0.00,,,0.00,0.0,meteohub,2013-07-27 09:18:00,
2013-07-27 05:23:00,58.6,56.8,30.04,SE,143,0.0,0.0,94,0.00,,,0.00,0.0,meteohub,2013-07-27 09:23:00,
2013-07-27 05:28:00,58.5,56.7,30.04,SE,143,0.0,0.0,94,0.00,,,0.00,0.0,meteohub,2013-07-27 09:28:00,
2013-07-27 05:33:00,58.5,57.0,30.04,SE,143,0.0,0.0,95,0.00,,,0.00,0.0,meteohub,2013-07-27 09:33:00,
2013-07-27 05:39:00,58.3,56.8,30.04,SE,143,0.0,0.0,95,0.00,,,0.00,0.0,meteohub,2013-07-27 09:39:00,
2013-07-27 05:44:00,58.3,56.8,30.04,SE,143,0.0,0.0,95,0.00,,,0.00,0.0,meteohub,2013-07-27 09:44:00,
2013-07-27 05:49:00,58.3,56.8,30.05,SE,143,0.0,0.0,95,0.00,,,0.00,0.0,meteohub,2013-07-27 09:49:00,
2013-07-27 05:54:00,58.3,56.8,30.04,SE,143,0.0,0.0,95,0.00,,,0.00,5.0,meteohub,2013-07-27 09:54:00,
2013-07-27 06:00:00,58.1,56.7,30.05,SE,143,0.0,0.0,95,0.00,,,0.00,7.0,meteohub,2013-07-27 10:00:00,
2013-07-27 06:05:00,58.1,56.7,30.05,SE,143,0.0,0.0,95,0.00,,,0.00,9.0,meteohub,2013-07-27 10:05:00,
2013-07-27 06:10:00,57.9,56.5,30.05,SE,143,0.0,0.0,95,0.00,,,0.00,11.0,meteohub,2013-07-27 10:10:00,
2013-07-27 06:15:00,57.9,56.8,30.04,SE,143,0.0,0.0,96,0.00,,,0.00,12.0,meteohub,2013-07-27 10:15:00,
2013-07-27 06:20:00,57.9,56.8,30.04,SE,143,0.0,0.0,96,0.00,,,0.00,14.0,meteohub,2013-07-27 10:20:00,
2013-07-27 06:26:00,57.9,56.8,30.05,SE,143,0.0,0.0,96,0.00,,,0.00,16.0,meteohub,2013-07-27 10:26:00,
2013-07-27 06:31:00,57.9,56.8,30.05,SE,143,0.0,0.0,96,0.00,,,0.00,19.0,meteohub,2013-07-27 10:31:00,
2013-07-27 06:36:00,57.9,56.8,30.05,SE,143,0.0,0.0,96,0.00,,,0.00,21.0,meteohub,2013-07-27 10:36:00,
2013-07-27 06:41:00,57.9,56.8,30.05,SE,143,0.0,0.0,96,0.00,,,0.00,23.0,meteohub,2013-07-27 10:41:00,
2013-07-27 06:46:00,58.1,57.0,30.05,SE,143,0.0,0.0,96,0.00,,,0.00,19.0,meteohub,2013-07-27 10:46:00,
2013-07-27 06:52:00,58.3,57.4,30.05,SE,143,0.0,0.0,97,0.00,,,0.00,44.0,meteohub,2013-07-27 10:52:00,
2013-07-27 06:57:00,58.3,57.4,30.05,SE,143,0.0,0.0,97,0.00,,,0.00,54.0,meteohub,2013-07-27 10:57:00,
2013-07-27 07:02:00,58.6,57.7,30.05,SE,143,0.0,0.0,97,0.00,,,0.00,67.0,meteohub,2013-07-27 11:02:00,
2013-07-27 07:07:00,59.2,58.6,30.05,SE,143,0.0,0.0,98,0.00,,,0.00,58.0,meteohub,2013-07-27 11:07:00,
2013-07-27 07:12:00,59.4,58.8,30.05,SE,144,0.0,0.0,98,0.00,,,0.00,86.0,meteohub,2013-07-27 11:12:00,
2013-07-27 07:17:00,59.5,59.0,30.05,SE,144,0.0,1.0,98,0.00,,,0.00,69.0,meteohub,2013-07-27 11:17:00,
2013-07-27 07:23:00,59.7,59.2,30.05,SE,144,0.0,1.0,98,0.00,,,0.00,53.0,meteohub,2013-07-27 11:23:00,
2013-07-27 07:28:00,59.9,59.4,30.05,SE,144,0.0,1.0,98,0.00,,,0.00,65.0,meteohub,2013-07-27 11:28:00,
2013-07-27 07:33:00,60.1,59.2,30.05,SE,144,0.0,0.0,97,0.00,,,0.00,104.0,meteohub,2013-07-27 11:33:00,
2013-07-27 07:38:00,60.3,59.7,30.05,SE,144,0.0,0.0,98,0.00,,,0.00,109.0,meteohub,2013-07-27 11:38:00,
2013-07-27 07:43:00,60.4,59.5,30.05,SE,144,0.0,1.0,97,0.00,,,0.00,127.0,meteohub,2013-07-27 11:43:00,
2013-07-27 07:48:00,60.4,59.5,30.06,SE,144,0.0,1.0,97,0.00,,,0.00,137.0,meteohub,2013-07-27 11:48:00,
2013-07-27 07:53:00,60.4,59.5,30.06,SE,144,0.0,1.0,97,0.00,,,0.00,128.0,meteohub,2013-07-27 11:53:00,
2013-07-27 07:59:00,60.6,59.7,30.06,SE,144,0.0,1.0,97,0.00,,,0.00,139.0,meteohub,2013-07-27 11:59:00,
2013-07-27 08:04:00,60.8,59.9,30.06,SE,144,0.0,1.0,97,0.00,,,0.00,130.0,meteohub,2013-07-27 12:04:00,
2013-07-27 08:09:00,61.0,60.1,30.06,SE,144,0.0,1.0,97,0.00,,,0.00,151.0,meteohub,2013-07-27 12:09:00,
2013-07-27 08:14:00,61.2,60.3,30.06,SE,144,0.0,1.0,97,0.00,,,0.00,139.0,meteohub,2013-07-27 12:14:00,
2013-07-27 08:19:00,61.3,60.4,30.06,SE,144,0.0,1.0,97,0.00,,,0.00,167.0,meteohub,2013-07-27 12:19:00,
2013-07-27 08:24:00,61.5,60.6,30.06,SE,144,0.0,1.0,97,0.00,,,0.00,232.0,meteohub,2013-07-27 12:24:00,
2013-07-27 08:29:00,61.9,61.0,30.06,SE,144,0.0,1.0,97,0.00,,,0.00,253.0,meteohub,2013-07-27 12:29:00,
2013-07-27 08:34:00,62.2,61.2,30.06,SE,144,0.0,0.0,96,0.00,,,0.00,171.0,meteohub,2013-07-27 12:34:00,
2013-07-27 08:40:00,62.6,61.5,30.06,SE,144,0.0,0.0,96,0.00,,,0.00,149.0,meteohub,2013-07-27 12:40:00,
2013-07-27 08:45:00,62.8,61.3,30.06,SE,144,0.0,1.0,95,0.00,,,0.00,243.0,meteohub,2013-07-27 12:45:00,
2013-07-27 08:50:00,63.1,61.7,30.06,SE,144,0.0,1.0,95,0.00,,,0.00,452.0,meteohub,2013-07-27 12:50:00,
2013-07-27 08:55:00,63.7,61.9,30.06,SE,144,0.0,1.0,94,0.00,,,0.00,424.0,meteohub,2013-07-27 12:55:00,
2013-07-27 09:00:00,64.2,62.4,30.06,SE,144,0.0,1.0,94,0.00,,,0.00,510.0,meteohub,2013-07-27 13:00:00,
2013-07-27 09:05:00,64.9,62.6,30.06,SE,144,1.0,1.0,92,0.00,,,0.00,540.0,meteohub,2013-07-27 13:05:00,
2013-07-27 09:11:00,65.5,63.1,30.06,NW,309,0.0,1.0,92,0.00,,,0.00,540.0,meteohub,2013-07-27 13:11:00,
2013-07-27 09:16:00,66.0,63.3,30.06,NW,309,0.0,3.0,91,0.00,,,0.00,299.0,meteohub,2013-07-27 13:16:00,
2013-07-27 09:21:00,66.7,63.7,30.06,WNW,294,0.0,3.0,90,0.00,,,0.00,371.0,meteohub,2013-07-27 13:21:00,
2013-07-27 09:27:00,67.5,64.0,30.06,WNW,294,0.0,3.0,89,0.00,,,0.00,592.0,meteohub,2013-07-27 13:27:00,
2013-07-27 09:32:00,68.4,64.6,30.05,WNW,294,0.0,1.0,88,0.00,,,0.00,631.0,meteohub,2013-07-27 13:32:00,
2013-07-27 09:37:00,69.3,65.5,30.05,WNW,294,0.0,2.0,88,0.00,,,0.00,529.0,meteohub,2013-07-27 13:37:00,
2013-07-27 09:42:00,70.0,65.7,30.05,WNW,294,0.0,2.0,86,0.00,,,0.00,427.0,meteohub,2013-07-27 13:42:00,
2013-07-27 09:47:00,70.3,65.3,30.05,WNW,294,0.0,2.0,84,0.00,,,0.00,271.0,meteohub,2013-07-27 13:47:00,
2013-07-27 09:53:00,70.5,65.1,30.05,WNW,294,0.0,1.0,83,0.00,,,0.00,341.0,meteohub,2013-07-27 13:53:00,
2013-07-27 09:58:00,70.7,66.0,30.05,WNW,294,0.0,2.0,85,0.00,,,0.00,751.0,meteohub,2013-07-27 13:58:00,
2013-07-27 10:03:00,71.1,65.3,30.05,WNW,294,0.0,2.0,82,0.00,,,0.00,742.0,meteohub,2013-07-27 14:03:00,
2013-07-27 10:08:00,71.4,65.7,30.05,WNW,298,3.0,3.0,82,0.00,,,0.00,626.0,meteohub,2013-07-27 14:08:00,
2013-07-27 10:13:00,71.8,66.4,30.05,WNW,291,0.0,2.0,83,0.00,,,0.00,598.0,meteohub,2013-07-27 14:13:00,
2013-07-27 10:19:00,72.0,66.2,30.05,WNW,290,0.0,3.0,82,0.00,,,0.00,722.0,meteohub,2013-07-27 14:19:00,
2013-07-27 10:24:00,72.3,66.2,30.05,WNW,291,0.0,3.0,81,0.00,,,0.00,566.0,meteohub,2013-07-27 14:24:00,
2013-07-27 10:29:00,72.9,67.1,30.05,WNW,291,0.0,2.0,82,0.00,,,0.00,573.0,meteohub,2013-07-27 14:29:00,
2013-07-27 10:34:00,73.6,66.7,30.05,NNW,336,0.0,2.0,79,0.00,,,0.00,671.0,meteohub,2013-07-27 14:34:00,
2013-07-27 10:39:00,73.9,68.2,30.05,NNW,336,0.0,2.0,82,0.00,,,0.00,800.0,meteohub,2013-07-27 14:39:00,
2013-07-27 10:45:00,74.5,68.2,30.05,South,191,0.0,2.0,81,0.01,,,0.01,721.0,meteohub,2013-07-27 14:45:00,
2013-07-27 10:50:00,74.8,66.7,30.05,North,355,0.0,2.0,76,0.01,,,0.01,589.0,meteohub,2013-07-27 14:50:00,
2013-07-27 10:55:00,75.0,66.9,30.05,North,0,1.0,3.0,76,0.01,,,0.01,497.0,meteohub,2013-07-27 14:55:00,
2013-07-27 11:00:00,75.0,66.9,30.05,North,0,0.0,3.0,76,0.01,,,0.01,490.0,meteohub,2013-07-27 15:00:00,
2013-07-27 11:05:00,75.4,67.6,30.05,North,0,0.0,2.0,77,0.01,,,0.01,520.0,meteohub,2013-07-27 15:05:00,
2013-07-27 11:11:00,75.7,67.3,30.05,North,5,0.0,3.0,75,0.01,,,0.01,536.0,meteohub,2013-07-27 15:11:00,
2013-07-27 11:16:00,76.3,66.9,30.05,NNW,334,0.0,3.0,73,0.01,,,0.01,531.0,meteohub,2013-07-27 15:16:00,
2013-07-27 11:22:00,76.5,67.6,30.05,NW,322,0.0,3.0,74,0.01,,,0.01,564.0,meteohub,2013-07-27 15:22:00,
2013-07-27 11:27:00,76.6,67.6,30.05,NW,322,0.0,2.0,74,0.01,,,0.01,504.0,meteohub,2013-07-27 15:27:00,
2013-07-27 11:32:00,76.6,67.6,30.05,NW,322,0.0,1.0,74,0.01,,,0.01,751.0,meteohub,2013-07-27 15:32:00,
2013-07-27 11:37:00,77.2,67.8,30.04,NW,321,0.0,1.0,73,0.00,,,0.01,860.0,meteohub,2013-07-27 15:37:00,
2013-07-27 11:42:00,77.5,66.9,30.04,WNW,299,2.0,2.0,70,0.00,,,0.01,856.0,meteohub,2013-07-27 15:42:00,
2013-07-27 11:47:00,77.7,67.1,30.04,West,268,1.0,2.0,70,0.00,,,0.01,666.0,meteohub,2013-07-27 15:47:00,
2013-07-27 11:52:00,77.9,67.3,30.04,NW,313,1.0,2.0,70,0.00,,,0.01,828.0,meteohub,2013-07-27 15:52:00,
2013-07-27 11:57:00,78.3,68.9,30.04,NW,313,0.0,2.0,73,0.00,,,0.01,782.0,meteohub,2013-07-27 15:57:00,
2013-07-27 12:02:00,78.6,68.9,30.04,NW,324,0.0,2.0,72,0.00,,,0.01,868.0,meteohub,2013-07-27 16:02:00,
2013-07-27 12:07:00,79.2,68.9,30.04,WNW,300,2.0,3.0,71,0.00,,,0.01,907.0,meteohub,2013-07-27 16:07:00,
2013-07-27 12:13:00,79.5,67.1,30.04,NNE,13,0.0,3.0,66,0.00,,,0.01,916.0,meteohub,2013-07-27 16:13:00,
2013-07-27 12:18:00,79.5,66.7,30.04,NNW,328,1.0,5.0,65,0.00,,,0.01,925.0,meteohub,2013-07-27 16:18:00,
2013-07-27 12:23:00,79.9,67.5,30.03,North,355,0.0,5.0,66,0.00,,,0.01,819.0,meteohub,2013-07-27 16:23:00,
2013-07-27 12:28:00,80.1,67.3,30.04,WNW,300,2.0,5.0,65,0.00,,,0.01,691.0,meteohub,2013-07-27 16:28:00,
2013-07-27 12:33:00,79.9,67.5,30.04,WNW,285,1.0,5.0,66,0.00,,,0.01,276.0,meteohub,2013-07-27 16:33:00,
2013-07-27 12:38:00,79.5,67.6,30.03,NNW,333,0.0,4.0,67,0.00,,,0.01,800.0,meteohub,2013-07-27 16:38:00,
2013-07-27 12:44:00,79.9,66.2,30.03,West,273,2.0,4.0,63,0.00,,,0.01,812.0,meteohub,2013-07-27 16:44:00,
2013-07-27 12:49:00,80.1,65.5,30.03,WSW,245,0.0,6.0,61,0.00,,,0.01,840.0,meteohub,2013-07-27 16:49:00,
2013-07-27 12:54:00,80.4,65.7,30.03,WNW,295,0.0,6.0,61,0.00,,,0.01,930.0,meteohub,2013-07-27 16:54:00,
2013-07-27 12:59:00,80.6,66.9,30.02,West,275,0.0,6.0,63,0.00,,,0.01,1005.0,meteohub,2013-07-27 16:59:00,
2013-07-27 13:04:00,80.8,66.0,30.02,West,271,0.0,3.0,61,0.00,,,0.01,905.0,meteohub,2013-07-27 17:04:00,
2013-07-27 13:09:00,80.8,65.1,30.02,NNE,22,2.0,3.0,59,0.00,,,0.01,926.0,meteohub,2013-07-27 17:09:00,
2013-07-27 13:15:00,80.4,65.3,30.02,North,0,2.0,4.0,60,0.00,,,0.01,949.0,meteohub,2013-07-27 17:15:00,
2013-07-27 13:20:00,80.4,64.2,30.02,NNE,15,1.0,6.0,58,0.00,,,0.01,935.0,meteohub,2013-07-27 17:20:00,
2013-07-27 13:25:00,80.4,63.9,30.02,North,0,0.0,6.0,57,0.00,,,0.01,916.0,meteohub,2013-07-27 17:25:00,
2013-07-27 13:30:00,80.8,65.1,30.01,NE,42,2.0,4.0,59,0.00,,,0.01,912.0,meteohub,2013-07-27 17:30:00,
2013-07-27 13:36:00,81.0,65.8,30.01,WSW,242,0.0,4.0,60,0.00,,,0.01,932.0,meteohub,2013-07-27 17:36:00,
2013-07-27 13:41:00,81.5,65.8,30.01,NNE,24,0.0,4.0,59,0.00,,,0.01,933.0,meteohub,2013-07-27 17:41:00,
2013-07-27 13:46:00,82.0,65.8,30.01,North,0,1.0,5.0,58,0.00,,,0.01,954.0,meteohub,2013-07-27 17:46:00,
2013-07-27 13:51:00,82.2,66.4,30.01,NNE,23,2.0,5.0,59,0.00,,,0.01,921.0,meteohub,2013-07-27 17:51:00,
2013-07-27 13:56:00,82.0,65.3,30.01,North,11,1.0,5.0,57,0.00,,,0.01,907.0,meteohub,2013-07-27 17:56:00,
2013-07-27 14:01:00,82.0,64.8,30.01,NNE,31,1.0,3.0,56,0.00,,,0.01,875.0,meteohub,2013-07-27 18:01:00,
2013-07-27 14:07:00,82.2,66.0,30.01,WNW,297,0.0,3.0,58,0.00,,,0.01,858.0,meteohub,2013-07-27 18:07:00,
2013-07-27 14:12:00,82.2,64.4,30.01,NE,46,0.0,4.0,55,0.00,,,0.01,643.0,meteohub,2013-07-27 18:12:00,
2013-07-27 14:17:00,82.0,65.8,30.01,SW,220,0.0,4.0,58,0.00,,,0.01,202.0,meteohub,2013-07-27 18:17:00,
2013-07-27 14:22:00,82.0,66.4,30.01,SW,225,2.0,4.0,59,0.00,,,0.01,770.0,meteohub,2013-07-27 18:22:00,
2013-07-27 14:27:00,82.0,66.4,30.01,West,280,2.0,3.0,59,0.00,,,0.01,893.0,meteohub,2013-07-27 18:27:00,
2013-07-27 14:32:00,82.4,65.1,30.00,WNW,292,2.0,3.0,56,0.00,,,0.01,849.0,meteohub,2013-07-27 18:32:00,
2013-07-27 14:37:00,82.6,64.8,30.00,NNW,336,2.0,3.0,55,0.00,,,0.01,858.0,meteohub,2013-07-27 18:37:00,
2013-07-27 14:42:00,82.6,65.8,30.00,North,355,4.0,4.0,57,0.00,,,0.01,800.0,meteohub,2013-07-27 18:42:00,
2013-07-27 14:48:00,82.4,65.7,30.00,NE,35,1.0,4.0,57,0.00,,,0.01,865.0,meteohub,2013-07-27 18:48:00,
2013-07-27 14:53:00,82.6,66.4,30.00,North,355,2.0,4.0,58,0.00,,,0.01,601.0,meteohub,2013-07-27 18:53:00,
2013-07-27 14:58:00,82.6,65.3,30.00,South,188,1.0,4.0,56,0.00,,,0.01,809.0,meteohub,2013-07-27 18:58:00,
2013-07-27 15:03:00,82.8,64.4,29.99,WSW,246,4.0,4.0,54,0.00,,,0.01,612.0,meteohub,2013-07-27 19:03:00,
2013-07-27 15:08:00,82.4,64.6,30.00,WNW,291,4.0,4.0,55,0.00,,,0.01,816.0,meteohub,2013-07-27 19:08:00,
2013-07-27 15:14:00,82.4,65.1,29.99,NW,317,0.0,4.0,56,0.00,,,0.01,719.0,meteohub,2013-07-27 19:14:00,
2013-07-27 15:19:00,82.6,65.3,29.99,NNE,24,1.0,4.0,56,0.00,,,0.01,830.0,meteohub,2013-07-27 19:19:00,
2013-07-27 15:24:00,82.6,65.8,29.99,North,355,0.0,4.0,57,0.00,,,0.01,788.0,meteohub,2013-07-27 19:24:00,
2013-07-27 15:30:00,82.8,64.9,29.99,WSW,239,0.0,4.0,55,0.00,,,0.01,759.0,meteohub,2013-07-27 19:30:00,
2013-07-27 15:35:00,82.9,64.0,29.99,North,0,0.0,3.0,53,0.00,,,0.01,415.0,meteohub,2013-07-27 19:35:00,
2013-07-27 15:40:00,83.3,64.9,29.99,NW,320,0.0,5.0,54,0.00,,,0.01,715.0,meteohub,2013-07-27 19:40:00,
2013-07-27 15:45:00,83.1,63.7,29.99,West,261,0.0,5.0,52,0.00,,,0.01,571.0,meteohub,2013-07-27 19:45:00,
2013-07-27 15:50:00,82.9,65.1,29.99,NNW,331,1.0,5.0,55,0.00,,,0.01,436.0,meteohub,2013-07-27 19:50:00,
2013-07-27 15:55:00,82.6,64.8,29.99,NNW,329,1.0,4.0,55,0.00,,,0.01,388.0,meteohub,2013-07-27 19:55:00,
2013-07-27 16:00:00,82.0,63.1,29.99,WSW,249,0.0,3.0,53,0.00,,,0.01,202.0,meteohub,2013-07-27 20:00:00,
2013-07-27 16:05:00,81.5,63.9,29.99,NE,42,0.0,3.0,55,0.00,,,0.01,213.0,meteohub,2013-07-27 20:05:00,
2013-07-27 16:11:00,81.1,64.9,29.98,NE,42,0.0,3.0,58,0.00,,,0.01,221.0,meteohub,2013-07-27 20:11:00,
2013-07-27 16:16:00,80.8,64.6,29.98,NE,42,0.0,3.0,58,0.00,,,0.01,292.0,meteohub,2013-07-27 20:16:00,
2013-07-27 16:21:00,80.6,66.4,29.98,NE,42,0.0,1.0,62,0.00,,,0.01,272.0,meteohub,2013-07-27 20:21:00,
2013-07-27 16:26:00,80.6,64.9,29.98,NE,55,0.0,1.0,59,0.00,,,0.01,262.0,meteohub,2013-07-27 20:26:00,
2013-07-27 16:31:00,80.8,65.7,29.98,NE,56,0.0,2.0,60,0.00,,,0.01,452.0,meteohub,2013-07-27 20:31:00,
2013-07-27 16:36:00,81.0,65.8,29.98,NE,51,0.0,2.0,60,0.00,,,0.01,276.0,meteohub,2013-07-27 20:36:00,
2013-07-27 16:41:00,81.0,66.2,29.98,NE,41,0.0,2.0,61,0.00,,,0.01,274.0,meteohub,2013-07-27 20:41:00,
2013-07-27 16:46:00,81.1,64.4,29.97,SSW,203,0.0,3.0,57,0.00,,,0.01,392.0,meteohub,2013-07-27 20:46:00,
2013-07-27 16:52:00,81.1,66.0,29.97,SSW,203,1.0,3.0,60,0.00,,,0.01,169.0,meteohub,2013-07-27 20:52:00,
2013-07-27 16:57:00,81.0,65.3,29.97,SSW,203,0.0,3.0,59,0.00,,,0.01,113.0,meteohub,2013-07-27 20:57:00,
2013-07-27 17:02:00,81.0,65.8,29.97,SSW,203,0.0,1.0,60,0.00,,,0.01,107.0,meteohub,2013-07-27 21:02:00,
2013-07-27 17:07:00,80.8,65.7,29.97,WNW,299,0.0,1.0,60,0.00,,,0.01,107.0,meteohub,2013-07-27 21:07:00,
2013-07-27 17:12:00,80.4,64.2,29.97,WSW,252,0.0,2.0,58,0.00,,,0.01,127.0,meteohub,2013-07-27 21:12:00,
2013-07-27 17:17:00,80.1,65.5,29.97,WSW,251,0.0,3.0,61,0.00,,,0.01,163.0,meteohub,2013-07-27 21:17:00,
2013-07-27 17:22:00,79.5,65.3,29.96,WSW,251,0.0,3.0,62,0.00,,,0.01,163.0,meteohub,2013-07-27 21:22:00,
2013-07-27 17:28:00,79.3,66.6,29.96,WSW,251,0.0,2.0,65,0.00,,,0.01,127.0,meteohub,2013-07-27 21:28:00,
2013-07-27 17:33:00,79.2,67.3,29.96,WSW,251,0.0,1.0,67,0.00,,,0.01,142.0,meteohub,2013-07-27 21:33:00,
2013-07-27 17:38:00,79.0,66.6,29.96,West,269,0.0,1.0,66,0.00,,,0.01,142.0,meteohub,2013-07-27 21:38:00,
2013-07-27 17:43:00,78.6,67.1,29.96,West,269,0.0,2.0,68,0.00,,,0.01,120.0,meteohub,2013-07-27 21:43:00,
2013-07-27 17:48:00,78.4,66.2,29.95,West,269,0.0,2.0,66,0.00,,,0.01,123.0,meteohub,2013-07-27 21:48:00,
2013-07-27 17:53:00,78.3,67.3,29.96,West,269,0.0,2.0,69,0.00,,,0.01,137.0,meteohub,2013-07-27 21:53:00,
2013-07-27 17:59:00,77.9,66.9,29.95,West,269,0.0,2.0,69,0.00,,,0.01,146.0,meteohub,2013-07-27 21:59:00,
2013-07-27 18:04:00,77.5,68.2,29.96,West,269,0.0,2.0,73,0.00,,,0.01,135.0,meteohub,2013-07-27 22:04:00,
2013-07-27 18:09:00,77.4,68.0,29.96,West,269,0.0,2.0,73,0.00,,,0.01,127.0,meteohub,2013-07-27 22:09:00,
2013-07-27 18:14:00,77.2,68.2,29.96,West,269,0.0,1.0,74,0.00,,,0.01,134.0,meteohub,2013-07-27 22:14:00,
2013-07-27 18:19:00,77.2,67.5,29.96,West,278,0.0,1.0,72,0.00,,,0.01,121.0,meteohub,2013-07-27 22:19:00,
2013-07-27 18:24:00,77.2,67.5,29.95,West,279,0.0,1.0,72,0.00,,,0.01,102.0,meteohub,2013-07-27 22:24:00,
2013-07-27 18:29:00,77.4,68.0,29.95,West,279,0.0,1.0,73,0.00,,,0.01,83.0,meteohub,2013-07-27 22:29:00,
2013-07-27 18:34:00,77.4,68.0,29.95,West,279,0.0,1.0,73,0.00,,,0.01,77.0,meteohub,2013-07-27 22:34:00,
2013-07-27 18:40:00,77.4,67.6,29.95,West,279,0.0,2.0,72,0.00,,,0.01,60.0,meteohub,2013-07-27 22:40:00,
2013-07-27 18:45:00,77.4,67.6,29.95,West,279,0.0,2.0,72,0.00,,,0.01,53.0,meteohub,2013-07-27 22:45:00,
2013-07-27 18:50:00,77.4,67.6,29.95,West,279,0.0,0.0,72,0.00,,,0.01,46.0,meteohub,2013-07-27 22:50:00,
2013-07-27 18:55:00,77.4,66.7,29.95,West,279,0.0,0.0,70,0.00,,,0.01,42.0,meteohub,2013-07-27 22:55:00,
2013-07-27 19:01:00,77.2,67.1,29.95,West,279,0.0,0.0,71,0.00,,,0.01,37.0,meteohub,2013-07-27 23:01:00,
2013-07-27 19:06:00,76.8,67.1,29.95,West,279,0.0,1.0,72,0.00,,,0.01,32.0,meteohub,2013-07-27 23:06:00,
2013-07-27 19:11:00,76.6,67.3,29.95,West,278,0.0,1.0,73,0.00,,,0.01,26.0,meteohub,2013-07-27 23:11:00,
2013-07-27 19:17:00,76.3,67.5,29.95,West,279,0.0,1.0,74,0.01,,,0.02,23.0,meteohub,2013-07-27 23:17:00,
2013-07-27 19:22:00,75.9,67.1,29.95,West,278,0.0,0.0,74,0.01,,,0.02,23.0,meteohub,2013-07-27 23:22:00,
2013-07-27 19:27:00,75.6,67.1,29.96,West,279,0.0,0.0,75,0.01,,,0.02,21.0,meteohub,2013-07-27 23:27:00,
2013-07-27 19:32:00,75.4,66.9,29.96,West,279,0.0,0.0,75,0.01,,,0.02,19.0,meteohub,2013-07-27 23:32:00,
2013-07-27 19:38:00,75.0,66.6,29.96,West,280,0.0,0.0,75,0.01,,,0.02,14.0,meteohub,2013-07-27 23:38:00,
2013-07-27 19:43:00,74.7,66.6,29.96,West,280,0.0,1.0,76,0.01,,,0.02,12.0,meteohub,2013-07-27 23:43:00,
2013-07-27 19:48:00,74.1,66.4,29.96,West,280,0.0,1.0,77,0.01,,,0.02,11.0,meteohub,2013-07-27 23:48:00,
2013-07-27 19:53:00,73.8,66.0,29.96,West,280,0.0,1.0,77,0.01,,,0.02,9.0,meteohub,2013-07-27 23:53:00,
2013-07-27 19:58:00,73.2,66.4,29.96,West,280,0.0,0.0,79,0.01,,,0.02,7.0,meteohub,2013-07-27 23:58:00,
2013-07-27 20:04:00,72.9,66.0,29.96,West,280,0.0,0.0,79,0.01,,,0.02,5.0,meteohub,2013-07-28 00:04:00,
2013-07-27 20:09:00,72.3,65.5,29.96,West,280,0.0,0.0,79,0.01,,,0.02,5.0,meteohub,2013-07-28 00:09:00,
2013-07-27 20:14:00,72.0,65.8,29.96,West,280,0.0,0.0,81,0.00,,,0.02,0.0,meteohub,2013-07-28 00:14:00,
2013-07-27 20:19:00,71.4,65.7,29.96,West,280,0.0,0.0,82,0.00,,,0.02,0.0,meteohub,2013-07-28 00:19:00,
2013-07-27 20:24:00,70.9,65.1,29.96,West,280,0.0,0.0,82,0.00,,,0.02,0.0,meteohub,2013-07-28 00:24:00,
2013-07-27 20:29:00,70.5,65.1,29.96,West,280,0.0,0.0,83,0.00,,,0.02,0.0,meteohub,2013-07-28 00:29:00,
2013-07-27 20:35:00,70.2,64.8,29.97,West,280,0.0,0.0,83,0.00,,,0.02,0.0,meteohub,2013-07-28 00:35:00,
2013-07-27 20:40:00,70.0,64.9,29.97,West,280,0.0,0.0,84,0.00,,,0.02,0.0,meteohub,2013-07-28 00:40:00,
2013-07-27 20:45:00,69.8,64.8,29.97,West,280,0.0,0.0,84,0.00,,,0.02,0.0,meteohub,2013-07-28 00:45:00,
2013-07-27 20:50:00,69.6,64.6,29.97,West,280,0.0,0.0,84,0.00,,,0.02,0.0,meteohub,2013-07-28 00:50:00,
2013-07-27 20:55:00,69.4,64.4,29.97,West,280,0.0,0.0,84,0.00,,,0.02,0.0,meteohub,2013-07-28 00:55:00,
2013-07-27 21:00:00,69.4,64.8,29.97,West,280,0.0,0.0,85,0.00,,,0.02,0.0,meteohub,2013-07-28 01:00:00,
2013-07-27 21:05:00,69.6,64.9,29.97,West,280,0.0,0.0,85,0.00,,,0.02,0.0,meteohub,2013-07-28 01:05:00,
2013-07-27 21:10:00,69.6,64.9,29.98,West,280,0.0,0.0,85,0.00,,,0.02,0.0,meteohub,2013-07-28 01:10:00,
2013-07-27 21:15:00,70.0,64.9,29.98,West,280,0.0,0.0,84,0.00,,,0.02,0.0,meteohub,2013-07-28 01:15:00,
2013-07-27 21:21:00,70.2,65.1,29.99,West,280,0.0,0.0,84,0.00,,,0.02,0.0,meteohub,2013-07-28 01:21:00,
2013-07-27 21:27:00,70.5,65.1,29.99,West,280,0.0,0.0,83,0.00,,,0.02,0.0,meteohub,2013-07-28 01:27:00,
2013-07-27 21:32:00,70.7,65.3,29.98,West,280,0.0,0.0,83,0.00,,,0.02,0.0,meteohub,2013-07-28 01:32:00,
2013-07-27 21:37:00,70.9,65.5,29.99,West,278,0.0,2.0,83,0.00,,,0.02,0.0,meteohub,2013-07-28 01:37:00,
2013-07-27 21:42:00,71.1,65.7,29.99,West,278,0.0,2.0,83,0.00,,,0.02,0.0,meteohub,2013-07-28 01:42:00,
2013-07-27 21:47:00,71.1,65.7,29.99,West,278,0.0,2.0,83,0.00,,,0.02,0.0,meteohub,2013-07-28 01:47:00,
2013-07-27 21:52:00,71.2,65.5,29.99,West,278,0.0,0.0,82,0.00,,,0.02,0.0,meteohub,2013-07-28 01:52:00,
2013-07-27 21:57:00,71.2,65.8,29.99,West,278,0.0,0.0,83,0.00,,,0.02,0.0,meteohub,2013-07-28 01:57:00,
2013-07-27 22:02:00,71.2,65.8,29.99,West,278,0.0,0.0,83,0.00,,,0.02,0.0,meteohub,2013-07-28 02:02:00,
2013-07-27 22:07:00,71.2,65.8,29.99,West,278,0.0,0.0,83,0.00,,,0.02,0.0,meteohub,2013-07-28 02:07:00,
2013-07-27 22:12:00,71.2,65.8,29.99,West,278,0.0,1.0,83,0.00,,,0.02,0.0,meteohub,2013-07-28 02:12:00,
2013-07-27 22:17:00,71.1,65.3,29.99,West,278,0.0,1.0,82,0.00,,,0.02,0.0,meteohub,2013-07-28 02:17:00,
2013-07-27 22:22:00,71.1,65.7,29.99,West,278,0.0,1.0,83,0.00,,,0.02,0.0,meteohub,2013-07-28 02:22:00,
2013-07-27 22:27:00,70.9,65.5,29.99,West,278,0.0,1.0,83,0.00,,,0.02,0.0,meteohub,2013-07-28 02:27:00,
2013-07-27 22:32:00,70.9,65.8,29.99,West,278,0.0,0.0,84,0.00,,,0.02,0.0,meteohub,2013-07-28 02:32:00,
2013-07-27 22:37:00,70.5,65.5,29.99,West,278,0.0,0.0,84,0.00,,,0.02,0.0,meteohub,2013-07-28 02:37:00,
2013-07-27 22:42:00,70.5,65.1,29.98,West,278,0.0,0.0,83,0.00,,,0.02,0.0,meteohub,2013-07-28 02:42:00,
2013-07-27 22:47:00,70.3,64.9,29.98,West,278,0.0,0.0,83,0.00,,,0.02,0.0,meteohub,2013-07-28 02:47:00,
2013-07-27 22:53:00,70.3,64.9,29.99,West,278,0.0,0.0,83,0.00,,,0.02,0.0,meteohub,2013-07-28 02:53:00,
2013-07-27 22:58:00,70.2,65.1,29.99,West,278,0.0,0.0,84,0.00,,,0.02,0.0,meteohub,2013-07-28 02:58:00,
2013-07-27 23:03:00,70.0,64.9,29.99,West,278,0.0,0.0,84,0.00,,,0.02,0.0,meteohub,2013-07-28 03:03:00,
2013-07-27 23:08:00,69.6,64.6,29.99,West,278,0.0,0.0,84,0.00,,,0.02,0.0,meteohub,2013-07-28 03:08:00,
2013-07-27 23:14:00,69.4,64.4,29.98,West,278,0.0,0.0,84,0.00,,,0.02,0.0,meteohub,2013-07-28 03:14:00,
2013-07-27 23:19:00,69.3,64.6,29.98,West,278,0.0,0.0,85,0.00,,,0.02,0.0,meteohub,2013-07-28 03:19:00,
2013-07-27 23:24:00,69.1,64.4,29.98,West,278,0.0,0.0,85,0.00,,,0.02,0.0,meteohub,2013-07-28 03:24:00,
2013-07-27 23:29:00,69.1,64.4,29.98,West,278,0.0,0.0,85,0.00,,,0.02,0.0,meteohub,2013-07-28 03:29:00,
2013-07-27 23:35:00,68.7,64.4,29.98,West,278,0.0,0.0,86,0.00,,,0.02,0.0,meteohub,2013-07-28 03:35:00,
2013-07-27 23:40:00,68.5,64.2,29.98,West,278,0.0,0.0,86,0.00,,,0.02,0.0,meteohub,2013-07-28 03:40:00,
2013-07-27 23:45:00,68.4,64.0,29.98,West,278,0.0,0.0,86,0.00,,,0.02,0.0,meteohub,2013-07-28 03:45:00,
2013-07-27 23:50:00,68.2,64.2,29.97,West,278,0.0,0.0,87,0.00,,,0.02,0.0,meteohub,2013-07-28 03:50:00,
2013-07-27 23:56:00,67.8,63.9,29.97,West,278,0.0,0.0,87,0.00,,,0.02,0.0,meteohub,2013-07-28 03:56:00,